"Pseudo-MPEC" for P22pwAY

Created 2026 Sep 4 4:35:07 UT using Find_Orb

Click here for an explanation of pseudo-MPECs

 
 Astrometry: 
     P22pwAY*0C2026 09 03.43924523 04 12.458-01 21 33.73   ~93D5 20.43wXNEOCPF52
     P22pwAY 0C2026 09 03.45094223 04 14.735-01 23 04.49   ~93D5 20.21wXNEOCPF52
     P22pwAY 0C2026 09 03.46268223 04 17.013-01 24 35.33   ~93D5 20.30wXNEOCPF52
     P22pwAY 0C2026 09 03.47438723 04 19.279-01 26 05.27   ~93D5 20.14wXNEOCPF52
     P22pwAY 0C2026 09 03.56866223 04 37.985-01 37 52.40   ~93Jo 19.86GVNEOCPF51
     P22pwAY 0C2026 09 03.56930423 04 38.090-01 37 56.99   ~93Jo 19.98GVNEOCPF51
     P22pwAY KB2026 09 03.82972823 05 57.22 -02 09 16.1    ~93KZ 20.5 VZNEOCP106
     P22pwAY KB2026 09 03.83219123 05 57.70 -02 09 32.1    ~93KZ       ZNEOCP106
     P22pwAY KB2026 09 03.83465323 05 58.15 -02 09 48.2    ~93KZ 20.3 VZNEOCP106
     P22pwAY KB2026 09 03.83711823 05 58.70 -02 10 05.0    ~93KZ 20.4 VZNEOCP106
     P22pwAY KB2026 09 03.85828323 06 04.24 -02 12 19.2    ~93LK 20.0 GXNEOCPI93
     P22pwAY KB2026 09 03.86620723 06 05.83 -02 13 10.2    ~93LK 20.2 GXNEOCPI93
     P22pwAY KB2026 09 03.87398323 06 07.30 -02 14 00.8    ~93LK 20.2 GXNEOCPI93
     P22pwAY KC2026 09 04.16264923 07 07.58 -02 43 12.0    ~944Z 21.1 GVNEOCPH21
     P22pwAY KC2026 09 04.16544823 07 08.01 -02 43 28.1    ~944Z 20.9 GVNEOCPH21
     P22pwAY KC2026 09 04.16824423 07 08.43 -02 43 44.2    ~944Z 20.8 GVNEOCPH21
     P22pwAY KC2026 09 04.17141323 07 08.93 -02 44 02.9    ~944Z 20.6 GVNEOCPH21

Station data:
(106) Črni Vrh  (N45.945905 E14.071100)  Slovenia.  Observer J. Skvarč. 0.6-m
   f/3.3 Deltagraph + CCD.
(F51) Pan-STARRS 1, Haleakala  (N20.707234 W156.255910)  US/Hawaii.
   Observers J. Herman, T. Lowe, P. Minguez, A. Schultz, I. Smith. Measurers
   K. Chambers, T. de Boer, J. Fairlamb, H. Gao, M. Huber, C.-C. Lin, E.
   Magnier, Y. Ramanjooloo, R. Wainscoat, R. Weryk. 1.8-m Ritchey-Chrétien +
   CCD.
(F52) Pan-STARRS 2, Haleakala  (N20.707382 W156.255910)  US/Hawaii.
   Observers J. Herman, T. Lowe, P. Minguez, A. Schultz, I. Smith. Measurers
   K. Chambers, T. de Boer, J. Fairlamb, H. Gao, M. Huber, C.-C. Lin, E.
   Magnier, Y. Ramanjooloo, R. Wainscoat, R. Weryk. 1.8-m Ritchey-Chrétien +
   CCD.
(H21) Astronomical Research Observatory, Westfield  (N39.483054 W87.968270)
   US/Illinois.  Observer R. Holmes. Measurers S. Foglia, L. Buzzi, T.
   Linder, R. Holmes. 0.40-m f/5.32 astrograph + CCD.
(I93) St Pardon de Conques  (N44.558670 W0.202960)  France.  Observers F.
   Losse, W. D'Anna. Measurer F. Losse. 0.40-m f/3.7 reflector + CCD.

Orbital elements:  P22pwAY
   Perihelion 2026 Jul 17.124935 +/- 0.0267 TT =  2:59:54.4 (JD 2461238.624935)
Epoch 2026 Sep  4.0 TT = JDT 2461287.5   Earth MOID: 0.0082   Ve: 0.0571
M  14.932750458 +/- 0.06            Ma: 0.0043                   AutoNEOCP
n   0.305529016 +/- 0.00125         Peri.  103.594909 +/- 0.008
a   2.183237962 +/- 0.00595         Node   163.627610 +/- 0.0015
e   0.65497808 +/- 0.00108          Incl.    3.649682 +/- 0.0045
P   3.22591                H 26.52  G  0.15   U  8.3
q 0.753264933 +/- 0.000317    Q 3.613210991 +/- 0.0122    (J2000 ecliptic)
From 17 observations 2026 Sept. 3-4 (17.6 hr); mean residual 0".27
Residuals in arcseconds: 
260903 F52  .07+  .03+    260903 106  .21+  .15-    260903 I93  .17-  .55+    
260903 F52  .01+  .14+    260903 106  .16+  .09+    260904 H21  .04+  .08-    
260903 F52  .02-  .01+    260903 106  .30-  .20+    260904 H21  .00   .00     
260903 F52  .07-  .02+    260903 106  .76+  .38-    260904 H21  .15-  .04+    
260903 F51  .20+  .19-    260903 I93  .54-  .07+    260904 H21  .07+  .39-    
260903 F51  .21-  .07-    260903 I93  .16+  .68+    

Ephemerides (geocentric):
Date (UTC) HH   RA             Dec           delta  r     elong  mag " sig PA
---- --------  ------------   ------------  ------ ------ -----  --- --------
2026 09 04 05  23 07 11.871   -02 45 39.49  .05133 1.0596 173.9 20.7 .188 148
2026 09 04 06  23 07 20.100   -02 49 34.33  .05174 1.0600 174.0 20.7 .198 147
2026 09 04 07  23 07 28.199   -02 53 25.50  .05215 1.0604 174.1 20.7 .209 146
2026 09 04 08  23 07 36.170   -02 57 13.08  .05257 1.0608 174.1 20.7 .219 145
2026 09 04 09  23 07 44.016   -03 00 57.14  .05298 1.0612 174.2 20.7 .230 144
2026 09 04 10  23 07 51.739   -03 04 37.77  .05339 1.0616 174.2 20.7 .241 143
2026 09 04 11  23 07 59.344   -03 08 15.04  .05380 1.0620 174.3 20.7 .252 142
2026 09 04 12  23 08 06.831   -03 11 49.03  .05421 1.0624 174.4 20.8 .263 142
2026 09 04 13  23 08 14.205   -03 15 19.82  .05463 1.0628 174.4 20.8 .274 141
2026 09 04 14  23 08 21.467   -03 18 47.47  .05504 1.0633 174.5 20.8 .286 141
2026 09 04 15  23 08 28.620   -03 22 12.05  .05545 1.0637 174.5 20.8 .297 140
2026 09 04 16  23 08 35.666   -03 25 33.64  .05586 1.0641 174.6 20.8 .308 140
2026 09 04 17  23 08 42.608   -03 28 52.28  .05627 1.0645 174.6 20.8 .320 139
2026 09 04 18  23 08 49.448   -03 32 08.06  .05669 1.0649 174.7 20.8 .331 139
2026 09 04 19  23 08 56.187   -03 35 21.02  .05710 1.0653 174.7 20.9 .343 139
2026 09 04 20  23 09 02.829   -03 38 31.24  .05751 1.0657 174.8 20.9 .354 139
2026 09 04 21  23 09 09.375   -03 41 38.76  .05793 1.0661 174.8 20.9 .366 138
2026 09 04 22  23 09 15.827   -03 44 43.64  .05834 1.0665 174.9 20.9 .377 138
2026 09 04 23  23 09 22.187   -03 47 45.94  .05875 1.0669 174.9 20.9 .389 138
2026 09 05 00  23 09 28.457   -03 50 45.71  .05917 1.0673 175.0 20.9 .401 138
2026 09 05 01  23 09 34.639   -03 53 43.00  .05958 1.0677 175.1 20.9 .412 138
2026 09 05 02  23 09 40.734   -03 56 37.87  .05999 1.0681 175.1 21.0 .424 137
2026 09 05 03  23 09 46.745   -03 59 30.36  .06041 1.0685 175.1 21.0 .435 137
2026 09 05 04  23 09 52.673   -04 02 20.51  .06082 1.0689 175.2 21.0 .447 137
2026 09 05 05  23 09 58.520   -04 05 08.39  .06123 1.0693 175.2 21.0 .458 137
2026 09 05 06  23 10 04.287   -04 07 54.02  .06165 1.0698 175.3 21.0 .470 137
2026 09 05 07  23 10 09.976   -04 10 37.47  .06206 1.0702 175.3 21.0 .481 137
2026 09 05 08  23 10 15.588   -04 13 18.75  .06248 1.0706 175.4 21.0 .493 137
2026 09 05 09  23 10 21.125   -04 15 57.93  .06289 1.0710 175.4 21.0 .504 137
2026 09 05 10  23 10 26.589   -04 18 35.04  .06331 1.0714 175.5 21.1 .516 137
2026 09 05 11  23 10 31.980   -04 21 10.12  .06372 1.0718 175.5 21.1 .527 136
2026 09 05 12  23 10 37.301   -04 23 43.21  .06414 1.0722 175.6 21.1 .538 136
2026 09 05 13  23 10 42.552   -04 26 14.35  .06455 1.0726 175.6 21.1 .550 136
2026 09 05 14  23 10 47.735   -04 28 43.57  .06496 1.0730 175.7 21.1 .561 136
2026 09 05 15  23 10 52.850   -04 31 10.91  .06538 1.0734 175.7 21.1 .572 136
2026 09 05 16  23 10 57.900   -04 33 36.40  .06579 1.0738 175.7 21.1 .584 136
2026 09 05 17  23 11 02.886   -04 36 00.09  .06621 1.0742 175.8 21.1 .595 136
2026 09 05 18  23 11 07.809   -04 38 21.99  .06663 1.0746 175.8 21.2 .606 136
2026 09 05 19  23 11 12.669   -04 40 42.15  .06704 1.0750 175.9 21.2 .617 136
2026 09 05 20  23 11 17.468   -04 43 00.59  .06746 1.0755 175.9 21.2 .628 136
2026 09 05 21  23 11 22.207   -04 45 17.35  .06787 1.0759 176.0 21.2 .639 136
2026 09 05 22  23 11 26.888   -04 47 32.46  .06829 1.0763 176.0 21.2 .650 136
2026 09 05 23  23 11 31.510   -04 49 45.94  .06870 1.0767 176.0 21.2 .661 136
2026 09 06 00  23 11 36.076   -04 51 57.83  .06912 1.0771 176.1 21.2 .672 136
2026 09 06 01  23 11 40.587   -04 54 08.15  .06953 1.0775 176.1 21.2 .683 136
2026 09 06 02  23 11 45.042   -04 56 16.93  .06995 1.0779 176.2 21.2 .694 136
2026 09 06 03  23 11 49.444   -04 58 24.20  .07037 1.0783 176.2 21.3 .704 136
2026 09 06 04  23 11 53.792   -05 00 29.98  .07078 1.0787 176.2 21.3 .715 136